CZ-4 DEB, 26454

Orbit data source: Space-Track

CZ-4 DEB, 26454 is space debris in SSO originally from a launch on Thu, 14 Oct 1999 UTC launched from the Taiyaun Space Center, China (TSC). Debris objects in space refer to the collection of defunct objects orbiting the Earth. Examples of debris include non-operational satellites, rocket bodies, and fragments generated from explosions, collisions, or faulty payload assembly.

Loading next visibility...
Identifier
26454, 1999-057KZ
Orbit
SSO
Country
Flag of CNCN / PRC
Related business
Manufacturer
Unknown
Mission
Spacecraft
Bus & Motor
Unknown
Mass
Unknown
Launch date (UTC)
1999-10-14 (26 years ago)
Launch vehicle
Unknown
Launch site
Taiyaun Space Center, China (TSC)
Object type
Payload
Rocket body
Debris
Shape & HBR
Unknown shape, 0.1 m
Radar Cross Section
Small (<0.1 m²)

Expand to show TLE details & history
Last TLE update: 23 hours ago

TLE from 23 hours ago
0 CZ-4 DEB
1 26454U 99057KZ  25349.14987367  .00003475  00000-0  53842-3 0  9993
2 26454  98.3441  46.9767 0053878 330.3009  56.2007 14.72909673344504
Epoch: 2025-12-15T03:35Z
TLE epoch observation values (Epoch: 2025-12-15T03:35:49.085Z)
Latitude
26.74636°
Longitude
-95.24632°
Altitude
634.187 km
Speed
7.555 km/s
True Right ascension
02h 51m 02s
True Declination
26° 36' 21"
Sunlit
Object was in full shadow at epoch
Visualization orbit readout
Latitude
Unknown
Longitude
Unknown
Altitude
Unknown
Speed
Unknown
Apparent Right ascension
Unknown
Apparent Declination
Unknown
Sunlit
N/A
Visualization observer readout
Local Sidereal Time
01:17:53
Azimuth
Unknown
Elevation
Unknown
Doppler factor
Unknown
Orbital elements
Apogee altitude
686.725 km
Perigee altitude
611.005 km
Semi-major axis
7,027.002 km
Eccentricity
0.00539
Inclination
98.3441°
RAAN
46.9767°
Arg. of periapsis
330.3009°
True anomaly
56.71567°
Mean anomaly
56.2007°
Eccentric anomaly
56.45799°
Mean motion
3.68458 °/min
Orbital period
97.7 mins
BSTAR
0.00053842
Loading maneuver chart data...
Computing Atmospheric mass density...
Loading historical data...
Loading historical data...
Loading historical data...
Loading historical data...
Loading historical data...
Loading historical data...
Loading historical data...

Documentation

Showing up to 5 results
|